National Weather Service Hourly Weather Roundup
NOAA NWS Hourly Roundups by Site
NOAA NWS Hourly Roundups by Site
Regional Weather Roundup for Sacramento, CA

To Select Another Site Choose from List

Select Site:  

000
ASUS46 KLOX 311213
RWRCA

SOUTHERN CALIFORNIA WEATHER ROUNDUP
NATIONAL WEATHER SERVICE OXNARD CALIFORNIA
500 AM PDT SAT JUL 31 2021

NOTE: "FAIR" INDICATES FEW OR NO CLOUDS BELOW 12,000 FEET WITH NO
SIGNIFICANT WEATHER AND/OR OBSTRUCTIONS TO VISIBILITY.

  -  STATIONS PRECEEDED BY AN ASTERISK (*) ARE NOT NWS OR FAA
     STATIONS AND ARE NOT SUBJECT TO NWS AND FAA QUALITY CONTROL.

CAZ041-042-087-311300-
LA AND ORANGE COUNTY COASTAL AREAS


CITY           SKY/WX    TMP DP  RH WIND       PRES   REMARKS
L.A. DOWNTOWN  CLEAR     65  59  81 CALM      29.97F
L.A. AIRPORT   PTCLDY    62  60  93 W3        29.98S
LONG BEACH     PTCLDY    65  60  84 NW5       29.97F

CITY           SKY/WX    TMP DP  RH WIND       PRES   REMARKS
AVALON           N/A     59 N/A N/A MISG        N/A
FULLERTON      PTCLDY    67  60  78 CALM      29.96F
HAWTHORNE      CLEAR     63  59  87 W3        29.98F
*LEO CARRILLO    N/A     60  59  95 W5          N/A
*LOS ALAMITOS  FAIR      62  62  99 NW5       29.97S
SANTA ANA      PTCLDY    67  60  78 CALM      29.97F
STA MONICA APT CLEAR     63  60  90 CALM      29.98S
*UCLA            N/A     63  57  82 CALM      29.95S

$$

CAZ547-548-048-311300-
LA COUNTY VALLEYS AND INLAND EMPIRE


CITY           SKY/WX    TMP DP  RH WIND       PRES   REMARKS
BURBANK        CLEAR     67  58  72 CALM      29.98S
VAN NUYS       CLEAR     69  58  67 CALM      29.98S

CITY           SKY/WX    TMP DP  RH WIND       PRES   REMARKS
CORONA AIRPORT MOSUNNY   63  60  90 CALM      29.99S
CHINO          CLEAR     67  59  75 CALM      29.99F
MARCH AFB      PTCLDY    68  56  64 CALM      30.00S
ONTARIO        PTCLDY    70  58  65 CALM      29.99S
RIVERSIDE      CLEAR     70  59  68 CALM      29.99S
SAN BERNARDINO NOT AVBL
*SAN RAFAEL HI   N/A     73  52  46 CALM        N/A
*SAUGUS          N/A     69  55  59 E5          N/A
*WHITEMAN AP   NOT AVBL
*WHITTIER HILL   N/A     64  59  85 CALM        N/A
*WOODLAND HILL   N/A     63  54  72 MISG        N/A

$$

CAZ054-055-311300-
LA AND SAN BERNARDINO COUNTY MOUNTAINS


CITY           SKY/WX    TMP DP  RH WIND       PRES   REMARKS
*BIG BEAR AIRP CLOUDY    52  50  93 CALM      30.36S
*CHILAO          N/A     69  40  35 CALM        N/A
SANDBERG       PTCLDY    74  38  27 S8        30.19S
*WARM SPRINGS    N/A     74  32  21 S2          N/A

$$

CAZ028-029-059-060-099-311300-
ANTELOPE VALLEY AND SURROUNDING AREAS


CITY           SKY/WX    TMP DP  RH WIND       PRES   REMARKS
LANCASTER      PTCLDY    73  38  27 NW8       30.04S
PALMDALE       PTCLDY    76  37  24 NE3       30.06S
*POPPY PARK      N/A     77  32  19 W7          N/A

CITY           SKY/WX    TMP DP  RH WIND       PRES   REMARKS
29 PALMS       MOCLDY    79  63  57 W10       30.09S
BARSTOW/DAGGET CLOUDY    79  59  50 E7        30.02S
BISHOP         PTCLDY    59  55  87 NE3       30.18R
CHINA LAKE     MOCLDY    79  59  50 W6        30.05R
EDWARDS AFB    PTCLDY    76  39  25 S5        30.02R
MOJAVE         CLOUDY    77  46  33 CALM      30.07S
NEEDLES        LGT RAIN  80  71  74 S20G29    29.99R

$$

CAZ039-040-311300-
VENTURA AND SANTA BARBARA COUNTY COAST


CITY           SKY/WX    TMP DP  RH WIND       PRES   REMARKS
CAMARILLO      CLOUDY    64  58  80 CALM      29.99S HAZE
OXNARD AIRPORT CLOUDY    61  59  93 NW5       29.99F FOG
*POINT MUGU    CLOUDY    61  58  90 NW5       30.00S
SBA APT/GOLETA CLOUDY    60  57  89 E6        29.99F
*VENTURA         N/A     59  57  94 W5          N/A

$$

CAZ044-045-311300-
VENTURA COUNTY VALLEYS


CITY           SKY/WX    TMP DP  RH WIND       PRES   REMARKS
*SIMI VALLEY     N/A     62  57  84 CALM      29.92S
*TO CIVIC ARTS   N/A     57  55  94 S1          N/A
*OJAI            N/A     78  60  52 CALM      29.89S
*FILLMORE        N/A     56  54  90 CALM      30.03S

$$

CAZ053-311300-
VENTURA COUNTY MOUNTAINS


CITY           SKY/WX    TMP DP  RH WIND       PRES   REMARKS
*LOCKWOOD VLY    N/A     52  34  50 MISG        N/A
*ROSE VALLEY     N/A     54  37  54 E1          N/A

$$

CAZ034-035-036-311300-
CENTRAL COAST AND SANTA YNEZ VALLEY


CITY           SKY/WX    TMP DP  RH WIND       PRES   REMARKS
SAN LUIS OBISP CLOUDY    61  57  87 CALM      30.01S
SANTA MARIA    FOG       57  56  96 CALM      30.02R VSB 1

CITY           SKY/WX    TMP DP  RH WIND       PRES   REMARKS
*CAL POLY SLO    N/A     59  59 100 E2          N/A
*LOMPOC          N/A     58  56  93 W3        30.02R
*PISMO BEACH     N/A     59  47  63 SW1       30.01R
*SANTA YNEZ    FOG       54  54 100 CALM      30.02R VSB 1/4

$$

CAZ037-038-051-311300-
SAN LUIS OBISPO COUNTY INTERIOR AND CUYAMA VALLEY


CITY           SKY/WX    TMP DP  RH WIND       PRES   REMARKS
PASO ROBLES    CLEAR     61  53  75 CALM      30.00R

$$

CAZ032-033-061-311300-
SOUTHERN DESERTS


CITY           SKY/WX    TMP DP  RH WIND       PRES   REMARKS
BLYTHE         PTCLDY    83  67  58 E5        29.94R
IMPERIAL       CLEAR     82  67  60 SE6       29.89S
PALM SPRINGS   PTCLDY    89  62  40 N5        29.93S
THERMAL        PTCLDY    78  69  73 SE7       29.89R

$$

ELSEWHERE ACROSS THE WESTERN UNITED STATES AND MEXICO


CITY           SKY/WX    TMP DP  RH WIND       PRES   REMARKS
DEATH VALLEY,    N/A     87  69  55 E2          N/A  HX  91
DENVER, CO     MOCLDY    64  61  90 CALM      30.35R
GRAND CANYON,  PTCLDY    54  53  97 CALM      30.35S
HONOLULU, HI   PTCLDY    79  64  61 E14       30.03F
KAHULUI, MAUI  PTCLDY    75  66  73 NE14      30.03F
LAKE TAHOE, CA CLOUDY    56  47  71 CALM      30.28F
LAS VEGAS, NV  MOCLDY    83  60  45 SW5       30.02R
MAMMOTH LAKES, FAIR      46  43  87 CALM      30.38S
MEXICO CITY, M CLOUDY    57  52  82 E5        30.40S
PHOENIX, AZ    MOCLDY    79  72  79 SW5       29.96F
PORTLAND, OR   MOCLDY    75  56  51 W6        29.95R
RENO, NV       MOCLDY    71  51  49 SE6       30.15F
SALT LAKE CITY MOCLDY    73  60  63 S3        30.16R
SAN DIEGO, CA  CLOUDY    65  61  87 N6        29.99R FOG
SAN FRANCISCO, PTCLDY    59  55  87 W6        29.96R
SAN JOSE, CA   CLEAR     62  54  74 S7        29.97R
SEATTLE, WA    CLOUDY    70  53  54 W3        29.99R
TIJUANA, MEX   CLEAR     63  59  88 W3        30.00

$$

STATION/POSITION TIME  TEMP    WIND        PRES    VSBY  WAVE
                       AIR SEA DIR/SP/G                  HT/PER
                 (UTC) (F)     (DEG/KT/KT) (MB)    (MI)  (FT/S)
WEST SANTA BARBA 1200   57     310/ 10/ 10 1016.0
EAST SANTA BARBA 1150   59 62  230/ 14/ 16 1016.0S         2/ 8
SANTA MONICA BAY 1200   62     290/  6/ 10 1015.3
SAN CLEMENTE BAS 1200   66     310/ 14/ 16 1014.6

 

View Past Reports for Sacramento, CA.

Products Courtesy of NOAA-NWS
NWS Information Parsing Script by Ken True at Saratoga Weather - Script by SE Lincoln Weather.

powered by Cumulus v1.9.3 (1059)
Ambient Weather VWS v14.00
Top Website Map Copyright © 2007 - 2021 Foresthillweather.com Never base important decisions on this or any weather information obtained from the Internet